Relatório de Envios

Visualize o desempenho das suas campanhas em detalhes.

STATUS GLOBAL
DETALHAMENTO DE ENTREGAS
Logs de Disparo
ID Data Telefone Nome Status Detalhes
#20502 15/07 22:17 34984104982 SONIA MARIA REIS VASCO MACEDO enviado ID: ...
#20501 15/07 22:17 92984695915 RAIMUNDA SOCORRO RAMOS OLIVEIRA enviado ID: ...
#20500 15/07 22:17 61991871427 JAQUELINE CRISTINA ALVES DOS SANTOS enviado ID: ...
#20499 15/07 22:17 17991235060 MARIA ROSALINA DA ROCHA BORDAN enviado ID: ...
#20498 15/07 22:17 43988572633 ELIVANIA FARIAS DE OLIVEIRA enviado ID: ...
#20497 15/07 22:17 62995104584 MATEUS LINDOLFO GALVAO MACHADO SANTOS enviado ID: ...
#20496 15/07 22:17 55992227881 ALICIA APPELT HUBNER enviado ID: ...
#20495 15/07 22:17 61995553738 SEBASTIAO ALVES MOURA enviado ID: ...
#20494 15/07 22:17 11914936785 MATHEUS BENEDITO enviado ID: ...
#20493 15/07 22:17 82996888818 ANTONIO SERAFIM DE OLIVEIRA FILHO enviado ID: ...
#20492 15/07 22:17 88992438879 RAIANE DAMASCENO ALCANTARA enviado ID: ...
#20491 15/07 22:17 21987129421 ALBERTO LOPES DA SILVA FILHO enviado ID: ...
#20490 15/07 22:17 13988271013 JOAO VITOR DA SILVA MOTA enviado ID: ...
#20489 15/07 22:17 81992080328 FERNANDA LUCIA DE ARAUJO CASTRO enviado ID: ...
#20488 15/07 22:17 12991824505 LETICIA PINHO DE ALMEIDA MACHADO enviado ID: ...
#20487 15/07 22:17 54981153193 SONIA MIGUELINA DE FREITAS enviado ID: ...
#20486 15/07 22:16 21966678550 ANTONIO FRANCISCO MADEIRA enviado ID: ...
#20485 15/07 22:16 21978795553 ADRIANNA REIS FARRIA enviado ID: ...
#20484 15/07 22:16 32988041397 LUDMILLA REIS FRANCISCO enviado ID: ...
#20483 15/07 22:16 55992088173 NEOCIR BASSO enviado ID: ...
#20482 15/07 22:16 91985781834 ALAN VICTOR DE JESUS MORAES enviado ID: ...
#20481 15/07 22:16 11992140666 VINICIUS XAVIER MARCON enviado ID: ...
#20480 15/07 22:16 85999860660 EDLADY PRAXEDES DA SILVA enviado ID: ...
#20479 15/07 22:16 43984753767 IRIS VASTI DA SILVA enviado ID: ...
#20478 15/07 22:16 11999281984 ENIO SANTINELLI FILHO enviado ID: ...
#20477 15/07 22:16 28999064947 DANIELY TEMPORIM TAVARES enviado ID: ...
#20476 15/07 22:16 41974039264 ANA LUIZA WIGGERS enviado ID: ...
#20475 15/07 22:16 11995471400 MARIA ANGELA PEREIRA enviado ID: ...
#20474 15/07 22:16 27992250249 PATRICIA ALVES DE SOUZA enviado ID: ...
#20473 15/07 22:16 61993163915 JOSE SIVIRINO NOGUEIRA DE CASTRO enviado ID: ...
#20472 15/07 22:16 31996462474 MARCOS ROBERTO CIPRIANO enviado ID: ...
#20471 15/07 22:16 74991218829 ESDRAS COSTA DA SILVA enviado ID: ...
#20470 15/07 22:16 27992225079 PATRICIA CARVALHO MEIRELES enviado ID: ...
#20469 15/07 22:16 41987054769 SIDNEY CHAVES enviado ID: ...
#20468 15/07 22:15 21975844687 JOSEANE DO NASCIMENTO COSTA enviado ID: ...
#20467 15/07 22:15 17991387523 CLEUSA MARIA DE SOUZA enviado ID: ...
#20466 15/07 22:15 79988781405 WADYSON SILVA MORAES enviado ID: ...
#20465 15/07 22:15 13981386091 JUSSARA DE SOUZA enviado ID: ...
#20464 15/07 22:15 16991265244 IVONE DA SILVA SOUSA COSTA enviado ID: ...
#20463 15/07 22:15 81996776062 ERIMARTA BARBOSA LEDO DE MORAES enviado ID: ...
#20462 15/07 22:15 32985199693 FRANCISLAINE APARECIDA VIEIRA NASCIMENTO enviado ID: ...
#20461 15/07 22:15 71981190884 CLAUDIA CONCEICAO FRANCA DA PAIXAO SANTOS enviado ID: ...
#20460 15/07 22:15 22992773139 JORGE CARDOSO enviado ID: ...
#20459 15/07 22:15 21974780573 ELIANE LUCAS GONCALVES enviado ID: ...
#20458 15/07 22:15 82991727331 VITORIA WALESKA OLIVEIRA MENDONCA enviado ID: ...
#20457 15/07 22:15 75982740202 CLEITON SANTANA DE ALMEIDA enviado ID: ...
#20456 15/07 22:15 53991478443 ANDRE DA SILVA GARCIAS enviado ID: ...
#20455 15/07 22:15 11993604378 CIBELE DA SILVA RODRIGUES enviado ID: ...
#20454 15/07 22:15 98984839585 RUAN PABLO CORREA BARBOSA enviado ID: ...
#20453 15/07 22:15 21993949282 ROSILENE DE OLIVEIRA ROSA enviado ID: ...